CZ-4 DEB

Satellite information

Favourite Embed

Satellite Type and Status

DEBRISIN ORBIT

Key statistics

Satellite CZ-4 DEB at a glance.

Uptime

12724

Days in orbit

Revolutions

≈ 13.8

Per day

Orbit

SSO

Sun Synchronous Orbit

Inclination

99.0

Latest

Satellite identification and parameters

Extended collection of information and parameters for CZ-4 DEB.

Object identification

Identified? True

Debris? True

Object name: CZ-4 DEB

International designator: 1990-081L

Object number (NORAD): 20848

Object ID (CCSDS): 20848

Country: PEOPLES REPUBLIC OF CHINA (PRC)

Current information (Y/N): Y

RCS size: MEDIUM

Orbital parameters

Period: 104.397 minutes

Inclination: 99.0236 deg

SMA: 7344.352 km

Apoapsis: 1117.197 km

Periapsis: 815.237 km

RAAN: 319.3566 deg

Eccentricy: 0.0205573

Argument of periapsis: 351.1871 deg

Mean anomaly: 135.9405 deg

Mean motion: 13.79343771 rev/day

Mean motion (dot): 0.00000419 rev/day2

B* drag term: 0.00038368 1/REarth

Two-line elements (TLE)

Creation date: July 4, 2025, 10:46 p.m.

Reference frame: TEME

Reference center: EARTH

Epoch: July 4, 2025, 7:29 p.m. UTC

TLE line 0: 0 CZ-4 DEB

TLE line 1: 1 20848U 90081L 25185.81210466 .00000419 00000-0 38368-3 0 9994

TLE line 2: 2 20848 99.0236 319.3566 0205573 351.1871 135.9405 13.79343771739173

Live tracking on map

Real-time ground track for satellite CZ-4 DEB.

In-orbit conjunctions

A list of the most updated potential collisions computed for object CZ-4 DEB.

Target Orbit TCA Probability of collision Miss distance Type
THOR BURNER 2 R/B SSO 2025-01-11 06:01:53 0.0001201709 606.0 (m) ROCKET BODY
FENGYUN 1C DEB SSO 2024-09-27 20:48:57 0.0003132928 854.0 (m) DEBRIS
SL-16 R/B LEO 2024-08-12 20:19:00 0.0001470319 106.0 (m) ROCKET BODY

Associated space launch

Chinese polar orbiting meteorological satellite

CZ-4 DEB was lifted into orbit during the mission ‘Long March 4A | Feng Yun 1B’, on board a Long March 4A space rocket.

The launch took place on Sept. 3, 1990, 12:53 a.m. from Launch Complex 7.

For more information about the launch, click the button.

Launch to space Long March 4A | Feng Yun 1B
Long March 4A | Feng Yun 1B

Agency: N/A

Status: Launch Successful

Launch date: Sept. 3, 1990, 12:53 a.m. UTC

Rocket: Long March 4A

Launch pad: Launch Complex 7

Location: Taiyuan Satellite Launch Center, People's Republic of China

...

Latest news about this satellite

There are no fresh news available about this satellite. Check back as we update our databases every day.


Newsletter sign-up

Weekly statistics, charts and insights to help you stay on top of the space industry.